CW6018 Weather Reports


time (UTC)temp
F
wind
direction
speed
knots
gust
knots
rain 1hr
in
rain 24hr
in
rain mn
in
humidity
%
barometer
mb
20260507213438 47 0.0 0.0 0.00 0.00 0.00 63 1018.7
20260507212420 46 0.0 0.0 0.00 0.00 0.00 64 1018.7
20260507211420 46 0.0 0.0 0.00 0.00 0.00 63 1018.6
20260507210420 46 0.0 0.0 0.00 0.00 0.00 62 1018.5
20260507205420 47 0.0 0.0 0.00 0.00 0.00 62 1018.4
20260507204420 47 0.0 0.0 0.00 0.00 0.00 62 1018.3
20260507203420 47 0.0 0.0 0.00 0.00 0.00 63 1018.2
20260507202420 47 0.0 0.0 0.00 0.00 0.00 61 1018.1
20260507201439 48 270 1.7 1.7 0.00 0.00 0.00 58 1018.1
20260507200419 48 270 0.9 1.7 0.00 0.00 0.00 58 1018.0
20260507195419 48 0.0 0.9 0.00 0.00 0.00 58 1018.0
20260507194419 48 270 0.9 1.7 0.00 0.00 0.00 57 1017.9
20260507193420 49 270 0.9 1.7 0.00 0.00 0.00 55 1017.9
20260507192459 50 270 1.7 1.7 0.00 0.00 0.00 54 1017.7
20260507191419 50 270 1.7 2.6 0.00 0.00 0.00 51 1017.6
20260507190419 51 270 2.6 3.5 0.00 0.00 0.00 52 1017.4
20260507185419 51 270 2.6 3.5 0.00 0.00 0.00 52 1017.3
20260507184419 51 270 2.6 3.5 0.00 0.00 0.00 49 1017.1
20260507183419 52 293 2.6 3.5 0.00 0.00 0.00 50 1017.0
20260507182419 52 270 1.7 3.5 0.00 0.00 0.00 48 1017.0
20260507181419 52 315 3.5 3.5 0.00 0.00 0.00 49 1017.0
20260507180439 52 270 4.3 4.3 0.00 0.00 0.00 46 1017.0
20260507175418 53 270 3.5 4.3 0.00 0.00 0.00 48 1016.9
20260507174439 53 293 4.3 4.3 0.00 0.00 0.00 47 1016.9
20260507173419 53 293 5.2 6.1 0.00 0.00 0.00 44 1016.9
20260507172419 53 293 6.1 7.0 0.00 0.00 0.00 46 1016.9
20260507171418 53 293 6.1 7.8 0.00 0.00 0.00 46 1016.9
20260507170418 53 293 7.0 8.7 0.00 0.00 0.00 45 1016.9
20260507165418 54 270 6.1 8.7 0.00 0.00 0.00 44 1016.8
20260507164418 54 293 7.0 8.7 0.00 0.00 0.00 44 1016.8
20260507163418 55 293 7.8 10.4 0.00 0.00 0.00 43 1016.7
20260507162418 56 293 7.8 9.6 0.00 0.00 0.00 38 1016.7
20260507161418 56 315 7.8 9.6 0.00 0.00 0.00 40 1016.7
20260507160418 56 293 7.8 8.7 0.00 0.00 0.00 35 1016.7
20260507155418 57 293 7.0 8.7 0.00 0.00 0.00 37 1016.7
20260507154418 57 293 5.2 7.8 0.00 0.00 0.00 38 1016.7
20260507153418 58 315 8.7 9.6 0.00 0.00 0.00 38 1016.7
20260507152420 58 270 6.1 7.8 0.00 0.00 0.00 38 1016.6
20260507151420 59 315 7.0 9.6 0.00 0.00 0.00 37 1016.7
20260507150439 59 315 7.0 9.6 0.00 0.00 0.00 38 1016.6
20260507145420 59 293 6.1 8.7 0.00 0.00 0.00 36 1016.6
20260507144420 58 270 7.0 9.6 0.00 0.00 0.00 36 1016.6
20260507143420 60 293 8.7 9.6 0.00 0.00 0.00 36 1016.5
20260507142419 61 293 7.0 9.6 0.00 0.00 0.00 34 1016.5
20260507141419 63 315 8.7 9.6 0.00 0.00 0.00 28 1016.5
20260507140419 63 315 7.0 8.7 0.00 0.00 0.00 27 1016.5
20260507135420 64 315 7.0 8.7 0.00 0.00 0.00 25 1016.6
20260507134419 64 315 8.7 10.4 0.00 0.00 0.00 29 1016.6
20260507133420 65 315 9.6 12.2 0.00 0.00 0.00 27 1016.6
20260507132419 65 315 8.7 9.6 0.00 0.00 0.00 27 1016.6
20260507131419 64 315 9.6 10.4 0.00 0.00 0.00 28 1016.6
20260507130419 64 338 11.3 12.2 0.00 0.00 0.00 27 1016.5
20260507125439 64 315 11.3 12.2 0.00 0.00 0.00 26 1016.6
20260507124419 64 0 9.6 12.2 0.00 0.00 0.00 27 1016.5
20260507123419 64 315 11.3 13.0 0.00 0.00 0.00 28 1016.4
20260507122419 64 315 10.4 12.2 0.00 0.00 0.00 30 1016.4
20260507121419 63 315 11.3 13.0 0.00 0.00 0.00 29 1016.4
20260507120419 63 315 10.4 12.2 0.00 0.00 0.00 32 1016.4
20260507115419 64 315 8.7 10.4 0.00 0.00 0.00 29 1016.3
20260507114419 64 315 9.6 11.3 0.00 0.00 0.00 30 1016.2
20260507113439 64 315 10.4 12.2 0.00 0.00 0.00 30 1016.2
20260507112419 65 315 9.6 10.4 0.00 0.00 0.00 29 1016.2
20260507111418 65 315 10.4 11.3 0.00 0.00 0.00 32 1016.1
20260507110418 65 338 10.4 13.9 0.00 0.00 0.00 30 1016.1
20260507105419 65 315 8.7 10.4 0.00 0.00 0.00 33 1016.1
20260507104419 63 338 8.7 11.3 0.00 0.00 0.00 35 1016.0
20260507103418 64 338 8.7 10.4 0.00 0.00 0.00 36 1016.0
20260507102418 63 315 7.8 10.4 0.00 0.00 0.00 37 1015.9
20260507101418 63 315 9.6 11.3 0.00 0.00 0.00 36 1015.9
20260507100418 64 338 8.7 10.4 0.00 0.00 0.00 36 1015.7
20260507095418 63 338 9.6 10.4 0.00 0.00 0.00 37 1015.5
20260507094418 63 315 8.7 10.4 0.00 0.00 0.00 37 1015.5
20260507093438 63 338 9.6 11.3 0.00 0.00 0.00 35 1015.4
20260507092440 62 315 7.8 9.6 0.00 0.00 0.00 37 1015.4
20260507091438 62 338 6.1 7.8 0.00 0.00 0.00 36 1015.3
20260507090420 61 315 7.0 8.7 0.00 0.00 0.00 37 1015.3
20260507085420 60 315 7.0 8.7 0.00 0.00 0.00 39 1015.2
20260507084420 59 315 4.3 5.2 0.00 0.00 0.00 40 1015.1
20260507083440 59 270 3.5 7.0 0.00 0.00 0.00 38 1015.1
20260507082500 59 293 4.3 6.1 0.00 0.00 0.00 38 1015.1
20260507081420 58 315 3.5 6.1 0.00 0.00 0.00 37 1014.9
20260507080419 57 315 5.2 6.1 0.00 0.00 0.00 39 1014.9
20260507075419 56 315 4.3 5.2 0.00 0.00 0.00 41 1014.8
20260507074420 55 315 7.0 7.8 0.00 0.00 0.00 43 1014.7
20260507073419 55 315 4.3 6.1 0.00 0.00 0.00 44 1014.6
20260507072419 54 315 5.2 6.1 0.00 0.00 0.00 46 1014.6
20260507071440 53 0 3.5 4.3 0.00 0.00 0.00 47 1014.6
20260507070419 52 338 4.3 5.2 0.00 0.00 0.00 49 1014.5
20260507065439 51 0 5.2 6.1 0.00 0.00 0.00 50 1014.5
20260507064419 50 315 5.2 6.1 0.00 0.00 0.00 53 1014.5
20260507063419 48 338 4.3 5.2 0.00 0.00 0.00 56 1014.3
20260507062419 47 338 4.3 5.2 0.00 0.00 0.00 58 1014.2
20260507061419 46 0 3.5 4.3 0.00 0.00 0.00 60 1014.2
20260507060419 45 0 4.3 5.2 0.00 0.00 0.00 60 1014.1
20260507055439 45 0 4.3 5.2 0.00 0.00 0.00 60 1014.0
20260507054418 45 68 1.7 2.6 0.00 0.00 0.00 65 1014.0
20260507053419 44 0 4.3 6.1 0.00 0.00 0.00 66 1013.9
20260507052418 44 68 1.7 4.3 0.00 0.00 0.00 69 1013.8
20260507051439 43 23 2.6 4.3 0.00 0.00 0.00 70 1013.7
20260507050438 43 45 1.7 3.5 0.00 0.00 0.00 73 1013.6
20260507045419 43 0 2.6 3.5 0.00 0.00 0.00 74 1013.6
20260507044418 43 338 3.5 5.2 0.00 0.00 0.00 75 1013.5
20260507043418 43 0.0 0.0 0.00 0.00 0.00 76 1013.4
20260507042418 43 0.0 0.0 0.00 0.00 0.00 77 1013.2
20260507041419 42 0.0 0.0 0.00 0.00 0.00 77 1013.2
20260507040418 41 0.0 0.0 0.00 0.00 0.00 77 1013.0
20260507035418 41 45 1.7 2.6 0.00 0.00 0.00 78 1012.9
20260507034438 41 45 1.7 2.6 0.00 0.00 0.00 78 1012.8
20260507033440 40 45 1.7 1.7 0.00 0.00 0.00 78 1012.8
20260507032419 40 45 2.6 3.5 0.00 0.00 0.00 78 1012.7
20260507031420 40 23 0.9 2.6 0.00 0.00 0.00 78 1012.7
20260507030420 40 0 0.9 2.6 0.00 0.00 0.00 78 1012.6
20260507025420 41 0 1.7 1.7 0.00 0.00 0.00 77 1012.7
20260507024419 41 68 2.6 2.6 0.00 0.00 0.00 76 1012.6
20260507023420 43 0.0 0.0 0.00 0.00 0.00 76 1012.5
20260507022420 43 0.0 0.0 0.00 0.00 0.00 77 1012.5
20260507021420 43 0.0 0.0 0.00 0.00 0.00 77 1012.4
20260507020419 43 135 1.7 2.6 0.00 0.00 0.00 77 1012.4
20260507015419 43 135 2.6 3.5 0.00 0.00 0.00 77 1012.3
20260507014419 43 135 2.6 3.5 0.00 0.00 0.00 76 1012.2
20260507013419 43 135 1.7 2.6 0.00 0.00 0.00 75 1012.1
20260507012419 43 135 2.6 2.6 0.00 0.00 0.00 76 1012.1
20260507011439 43 135 2.6 3.5 0.00 0.00 0.00 76 1012.1
20260507010419 43 135 3.5 4.3 0.00 0.00 0.00 76 1012.1
20260507005419 43 0.0 0.0 0.00 0.00 0.00 75 1011.9
20260507004419 43 0.0 0.0 0.00 0.00 0.00 74 1012.0
20260507003419 44 0.0 0.0 0.00 0.00 0.00 73 1011.9
20260507002419 44 0.0 0.0 0.00 0.00 0.00 73 1011.9
20260507001419 44 0.0 0.0 0.00 0.00 0.00 73 1011.9
20260507000420 44 0.0 0.0 0.00 0.00 0.00 74 1011.8
20260506235419 44 0.0 0.0 0.00 0.00 0.00 73 1011.8
20260506234418 45 0 0.9 1.7 0.00 0.00 0.00 73 1011.7
20260506233418 45 293 3.5 4.3 0.00 0.00 0.00 73 1011.6
20260506232418 45 270 3.5 3.5 0.00 0.00 0.00 73 1011.7
20260506231419 45 293 4.3 4.3 0.00 0.00 0.00 72 1011.8
20260506230418 45 270 4.3 5.2 0.00 0.00 0.00 71 1011.7
20260506225438 44 315 5.2 6.1 0.00 0.00 0.00 71 1011.7
20260506224419 45 270 3.5 4.3 0.00 0.00 0.00 72 1011.7
20260506223418 45 315 3.5 4.3 0.00 0.00 0.00 72 1011.7
20260506222418 45 315 5.2 6.1 0.00 0.00 0.00 72 1011.7
20260506221418 45 315 7.0 8.7 0.00 0.00 0.00 72 1011.7
20260506220418 45 293 6.1 8.7 0.00 0.00 0.00 73 1011.6
20260506215419 45 315 6.1 7.0 0.00 0.00 0.00 71 1011.6
20260506214419 45 293 5.2 6.1 0.00 0.00 0.00 68 1011.6